Time,TemperatureF,DewpointF,PressureIn,WindDirection,WindDirectionDegrees,WindSpeedMPH,WindSpeedGustMPH,Humidity,HourlyPrecipIn,Conditions,Clouds,dailyrainin,SoftwareType,DateUTC
2013-06-16 00:01:00,64.0,26.0,-100.00,SSE,153,3.0,9.0,24,0.00,,,0.00,,2013-06-16 07:01:00,
2013-06-16 00:11:00,64.0,26.0,-100.00,SSE,153,3.0,9.0,24,0.00,,,0.00,,2013-06-16 07:11:00,
2013-06-16 00:43:00,63.0,28.0,-100.00,South,174,3.0,9.0,26,0.00,,,0.00,,2013-06-16 07:43:00,
2013-06-16 00:53:00,63.0,28.0,-100.00,South,174,3.0,9.0,26,0.00,,,0.00,,2013-06-16 07:53:00,
2013-06-16 01:02:00,63.0,28.0,-100.00,South,174,3.0,9.0,26,0.00,,,0.00,,2013-06-16 08:02:00,
2013-06-16 01:11:00,63.0,28.0,-100.00,South,174,3.0,9.0,26,0.00,,,0.00,,2013-06-16 08:11:00,
2013-06-16 01:43:00,62.0,27.0,-100.00,SSE,148,3.0,10.0,26,0.00,,,0.00,,2013-06-16 08:43:00,
2013-06-16 01:54:00,62.0,27.0,-100.00,SSE,148,3.0,10.0,26,0.00,,,0.00,,2013-06-16 08:54:00,
2013-06-16 02:01:00,62.0,27.0,-100.00,SSE,148,3.0,10.0,26,0.00,,,0.00,,2013-06-16 09:01:00,
2013-06-16 02:11:00,62.0,27.0,-100.00,SSE,148,3.0,10.0,26,0.00,,,0.00,,2013-06-16 09:11:00,
2013-06-16 02:43:00,53.0,27.0,-100.00,NE,50,1.0,4.0,36,-99.99,,,0.00,,2013-06-16 09:43:00,
2013-06-16 02:52:00,53.0,27.0,-100.00,NE,50,1.0,4.0,36,-99.99,,,0.00,,2013-06-16 09:52:00,
2013-06-16 03:01:00,53.0,27.0,-100.00,NE,50,1.0,4.0,36,-99.99,,,0.00,,2013-06-16 10:01:00,
2013-06-16 03:12:00,53.0,27.0,-100.00,NE,50,1.0,4.0,36,-99.99,,,0.00,,2013-06-16 10:12:00,
2013-06-16 03:43:00,49.0,27.0,-100.00,NNE,15,1.0,3.0,43,0.00,,,0.00,,2013-06-16 10:43:00,
2013-06-16 03:53:00,49.0,27.0,-100.00,NNE,15,1.0,3.0,43,0.00,,,0.00,,2013-06-16 10:53:00,
2013-06-16 04:02:00,49.0,27.0,-100.00,NNE,15,1.0,3.0,43,0.00,,,0.00,,2013-06-16 11:02:00,
2013-06-16 04:11:00,49.0,27.0,-100.00,NNE,15,1.0,3.0,43,0.00,,,0.00,,2013-06-16 11:11:00,
2013-06-16 04:43:00,47.0,27.0,-100.00,NE,37,0.0,2.0,46,0.00,,,0.00,,2013-06-16 11:43:00,
2013-06-16 04:53:00,47.0,27.0,-100.00,NE,37,0.0,2.0,46,0.00,,,0.00,,2013-06-16 11:53:00,
2013-06-16 05:01:00,47.0,27.0,-100.00,NE,37,0.0,2.0,46,0.00,,,0.00,,2013-06-16 12:01:00,
2013-06-16 05:11:00,47.0,27.0,-100.00,NE,37,0.0,2.0,46,0.00,,,0.00,,2013-06-16 12:11:00,
2013-06-16 05:43:00,46.0,28.0,-100.00,West,268,2.0,4.0,49,0.00,,,0.00,,2013-06-16 12:43:00,
2013-06-16 05:53:00,46.0,28.0,-100.00,West,268,2.0,4.0,49,0.00,,,0.00,,2013-06-16 12:53:00,
2013-06-16 06:01:00,46.0,28.0,-100.00,West,268,2.0,4.0,49,0.00,,,0.00,,2013-06-16 13:01:00,
2013-06-16 06:11:00,46.0,28.0,-100.00,West,268,2.0,4.0,49,0.00,,,0.00,,2013-06-16 13:11:00,
2013-06-16 06:43:00,49.0,33.0,-100.00,East,95,2.0,3.0,53,0.00,,,0.00,,2013-06-16 13:43:00,
2013-06-16 06:53:00,49.0,33.0,-100.00,East,95,2.0,3.0,53,0.00,,,0.00,,2013-06-16 13:53:00,
2013-06-16 07:01:00,49.0,33.0,-100.00,East,95,2.0,3.0,53,0.00,,,0.00,,2013-06-16 14:01:00,
2013-06-16 07:12:00,49.0,33.0,-100.00,East,95,2.0,3.0,53,0.00,,,0.00,,2013-06-16 14:12:00,
2013-06-16 08:52:00,73.0,32.0,-100.00,SSW,199,7.0,19.0,22,0.00,,,0.00,,2013-06-16 15:52:00,
2013-06-16 09:01:00,73.0,32.0,-100.00,SSW,199,7.0,19.0,22,0.00,,,0.00,,2013-06-16 16:01:00,
2013-06-16 09:11:00,73.0,32.0,-100.00,SSW,199,7.0,19.0,22,0.00,,,0.00,,2013-06-16 16:11:00,
2013-06-16 09:43:00,76.0,32.0,-100.00,SW,216,6.0,15.0,20,0.00,,,0.00,,2013-06-16 16:43:00,
2013-06-16 09:53:00,76.0,32.0,-100.00,SW,216,6.0,15.0,20,0.00,,,0.00,,2013-06-16 16:53:00,
2013-06-16 10:01:00,76.0,32.0,-100.00,SW,216,6.0,15.0,20,0.00,,,0.00,,2013-06-16 17:01:00,
2013-06-16 10:11:00,76.0,32.0,-100.00,SW,216,6.0,15.0,20,0.00,,,0.00,,2013-06-16 17:11:00,
2013-06-16 10:43:00,78.0,30.0,-100.00,WSW,239,7.0,14.0,17,0.00,,,0.00,,2013-06-16 17:43:00,
2013-06-16 10:53:00,78.0,30.0,-100.00,WSW,239,7.0,14.0,17,0.00,,,0.00,,2013-06-16 17:53:00,
2013-06-16 11:02:00,78.0,30.0,-100.00,WSW,239,7.0,14.0,17,0.00,,,0.00,,2013-06-16 18:02:00,
2013-06-16 11:12:00,78.0,30.0,-100.00,WSW,239,7.0,14.0,17,0.00,,,0.00,,2013-06-16 18:12:00,
2013-06-16 11:43:00,79.0,32.0,-100.00,South,178,8.0,19.0,18,0.00,,,0.00,,2013-06-16 18:43:00,
2013-06-16 11:52:00,79.0,32.0,-100.00,South,178,8.0,19.0,18,0.00,,,0.00,,2013-06-16 18:52:00,
2013-06-16 12:01:00,79.0,32.0,-100.00,South,178,8.0,19.0,18,0.00,,,0.00,,2013-06-16 19:01:00,
2013-06-16 12:11:00,79.0,32.0,-100.00,South,178,8.0,19.0,18,0.00,,,0.00,,2013-06-16 19:11:00,
2013-06-16 12:43:00,81.0,32.0,-100.00,South,169,7.0,21.0,17,0.00,,,0.00,,2013-06-16 19:43:00,
2013-06-16 12:53:00,81.0,32.0,-100.00,South,169,7.0,21.0,17,0.00,,,0.00,,2013-06-16 19:53:00,
2013-06-16 13:02:00,81.0,32.0,-100.00,South,169,7.0,21.0,17,0.00,,,0.00,,2013-06-16 20:02:00,
2013-06-16 13:11:00,81.0,32.0,-100.00,South,169,7.0,21.0,17,0.00,,,0.00,,2013-06-16 20:11:00,
2013-06-16 13:43:00,81.0,27.0,-100.00,South,184,8.0,19.0,14,0.00,,,0.00,,2013-06-16 20:43:00,
2013-06-16 13:53:00,81.0,27.0,-100.00,South,184,8.0,19.0,14,0.00,,,0.00,,2013-06-16 20:53:00,
2013-06-16 14:01:00,81.0,27.0,-100.00,South,184,8.0,19.0,14,0.00,,,0.00,,2013-06-16 21:01:00,
2013-06-16 14:11:00,81.0,27.0,-100.00,South,184,8.0,19.0,14,0.00,,,0.00,,2013-06-16 21:11:00,
2013-06-16 14:42:00,82.0,28.0,-100.00,WSW,240,9.0,23.0,14,0.00,,,0.00,,2013-06-16 21:42:00,
2013-06-16 14:53:00,82.0,28.0,-100.00,WSW,240,9.0,23.0,14,0.00,,,0.00,,2013-06-16 21:53:00,
2013-06-16 15:01:00,82.0,28.0,-100.00,WSW,240,9.0,23.0,14,0.00,,,0.00,,2013-06-16 22:01:00,
2013-06-16 15:12:00,82.0,28.0,-100.00,WSW,240,9.0,23.0,14,0.00,,,0.00,,2013-06-16 22:12:00,
2013-06-16 15:32:00,82.0,26.0,-100.00,SW,218,7.0,23.0,13,0.00,,,0.00,,2013-06-16 22:32:00,
2013-06-16 15:42:00,82.0,26.0,-100.00,SW,218,7.0,23.0,13,0.00,,,0.00,,2013-06-16 22:42:00,
2013-06-16 15:52:00,82.0,26.0,-100.00,SW,218,7.0,23.0,13,0.00,,,0.00,,2013-06-16 22:52:00,
2013-06-16 16:01:00,82.0,26.0,-100.00,SW,218,7.0,23.0,13,0.00,,,0.00,,2013-06-16 23:01:00,
2013-06-16 16:11:00,82.0,26.0,-100.00,SW,218,7.0,23.0,13,0.00,,,0.00,,2013-06-16 23:11:00,
2013-06-16 16:42:00,82.0,26.0,-100.00,WSW,255,10.0,26.0,13,0.00,,,0.00,,2013-06-16 23:42:00,
2013-06-16 16:52:00,82.0,26.0,-100.00,WSW,255,10.0,26.0,13,0.00,,,0.00,,2013-06-16 23:52:00,
2013-06-16 17:01:00,82.0,26.0,-100.00,WSW,255,10.0,26.0,13,0.00,,,0.00,,2013-06-17 00:01:00,
2013-06-16 17:11:00,82.0,26.0,-100.00,WSW,255,10.0,26.0,13,0.00,,,0.00,,2013-06-17 00:11:00,
2013-06-16 18:43:00,80.0,25.0,-100.00,SSW,213,6.0,20.0,13,-99.99,,,0.00,,2013-06-17 01:43:00,
2013-06-16 18:53:00,80.0,25.0,-100.00,SSW,213,6.0,20.0,13,-99.99,,,0.00,,2013-06-17 01:53:00,
2013-06-16 19:02:00,80.0,25.0,-100.00,SSW,213,6.0,20.0,13,-99.99,,,0.00,,2013-06-17 02:02:00,
2013-06-16 19:11:00,80.0,25.0,-100.00,SSW,213,6.0,20.0,13,-99.99,,,0.00,,2013-06-17 02:11:00,
2013-06-16 19:43:00,76.0,22.0,-100.00,WSW,238,5.0,14.0,13,0.00,,,0.00,,2013-06-17 02:43:00,
2013-06-16 19:53:00,76.0,22.0,-100.00,WSW,238,5.0,14.0,13,0.00,,,0.00,,2013-06-17 02:53:00,
2013-06-16 20:02:00,76.0,22.0,-100.00,WSW,238,5.0,14.0,13,0.00,,,0.00,,2013-06-17 03:02:00,
2013-06-16 20:12:00,76.0,22.0,-100.00,WSW,238,5.0,14.0,13,0.00,,,0.00,,2013-06-17 03:12:00,
2013-06-16 20:44:00,68.0,22.0,-100.00,SSE,149,2.0,11.0,17,0.00,,,0.00,,2013-06-17 03:44:00,
2013-06-16 20:54:00,68.0,22.0,-100.00,SSE,149,2.0,11.0,17,0.00,,,0.00,,2013-06-17 03:54:00,
2013-06-16 21:02:00,68.0,22.0,-100.00,SSE,149,2.0,11.0,17,0.00,,,0.00,,2013-06-17 04:02:00,
2013-06-16 21:12:00,68.0,22.0,-100.00,SSE,149,2.0,11.0,17,0.00,,,0.00,,2013-06-17 04:12:00,
2013-06-16 21:53:00,61.0,21.0,-100.00,North,354,1.0,4.0,21,0.00,,,-99.99,,2013-06-17 04:53:00,
2013-06-16 22:02:00,61.0,21.0,-100.00,North,354,1.0,4.0,21,0.00,,,-99.99,,2013-06-17 05:02:00,
2013-06-16 22:11:00,61.0,21.0,-100.00,North,354,1.0,4.0,21,0.00,,,-99.99,,2013-06-17 05:11:00,
2013-06-16 22:44:00,56.0,23.0,-100.00,SE,133,2.0,3.0,27,0.00,,,0.00,,2013-06-17 05:44:00,
2013-06-16 22:53:00,56.0,23.0,-100.00,SE,133,2.0,3.0,27,0.00,,,0.00,,2013-06-17 05:53:00,
2013-06-16 23:02:00,56.0,23.0,-100.00,SE,133,2.0,3.0,27,0.00,,,0.00,,2013-06-17 06:02:00,
2013-06-16 23:12:00,56.0,23.0,-100.00,SE,133,2.0,3.0,27,0.00,,,0.00,,2013-06-17 06:12:00,
2013-06-16 23:43:00,53.0,23.0,-100.00,ESE,122,3.0,5.0,31,0.00,,,-99.99,,2013-06-17 06:43:00,
2013-06-16 23:53:00,53.0,23.0,-100.00,ESE,122,3.0,5.0,31,0.00,,,-99.99,,2013-06-17 06:53:00,